Temperature
7 5 5 5 6 7 7 6 6 6 6 5 4 3 3 3 3 2 2 2 2 2 2 2 2 3 3 3 3 3 4 4 4 4 4 4 4 4 4 4 4 4 5 5
5 4 5 6 6 6 6 6 5 5 5 5 4 2 2 2 2 2 1 1 1 1 1 1 2 2 2 2 3 3 3 3 3 3 3 3 4 4 4 4 4 4 4 4
5 5 5 6 5 6 5 5 4 4 4 4 3 2 2 2 1 1 1 1 1 0 0 1 1 1 1 2 2 2 2 2 2 2 2 2 3 3 3 3 3 3 3 3
4 4 5 5 4 5 5 4 4 4 3 2 3 2 2 1 0 -0 -0 0 0 -0 0 0 0 0 0 1 1 1 1 1 1 1 2 2 2 2 2 2 2 2 2 3
3 4 4 4 4 4 4 4 3 3 2 1 1 1 1 -0 0 -0 -1 -1 -1 -1 -1 -1 -1 -1 -1 -0 -0 0 0 1 1 1 1 1 1 1 1 2 2 2 2 2
3 3 3 3 3 3 3 3 2 1 0 1 1 1 1 -1 -0 -1 -1 -1 -1 -1 -1 -1 -1 -1 -1 -1 -1 -1 -1 -0 -0 -0 0 0 0 1 1 1 1 1 1 1
3 3 3 3 3 3 2 2 2 1 1 1 1 0 -0 -1 -2 -2 -2 -2 -2 -2 -2 -2 -2 -2 -2 -2 -2 -1 -1 -1 -1 -1 -1 -0 -0 -0 0 0 0 0 1 1
3 3 2 2 2 2 1 2 2 2 1 0 -0 -0 -1 -3 -3 -2 -2 -2 -2 -2 -2 -2 -2 -2 -2 -2 -2 -2 -2 -2 -2 -2 -1 -1 -1 -1 -1 -1 -1 -1 -0 -0
2 2 1 1 1 2 1 1 1 -0 -1 -1 -1 -2 -2 -2 -3 -3 -3 -3 -3 -3 -3 -3 -3 -3 -3 -3 -3 -3 -3 -3 -3 -2 -2 -2 -2 -2 -2 -2 -1 -1 -1 -1
1 1 1 0 1 0 1 0 -1 -1 -0 -0 -1 -2 -1 -3 -3 -4 -4 -4 -4 -3 -4 -4 -4 -4 -4 -4 -4 -4 -4 -4 -4 -3 -3 -3 -3 -3 -3 -3 -2 -2 -2 -2
0 0 -0 -0 -1 -0 -1 -0 -1 -2 -2 -1 -1 -1 -2 -3 -4 -4 -4 -4 -4 -4 -4 -4 -4 -4 -4 -4 -4 -4 -4 -4 -4 -4 -4 -4 -4 -4 -4 -4 -3 -3 -3 -3
-1 -1 -1 -1 -2 -2 -1 -2 -2 -1 -2 -3 -3 -2 -3 -4 -4 -4 -4 -4 -4 -4 -5 -5 -5 -5 -5 -5 -5 -5 -5 -5 -5 -5 -5 -5 -5 -4 -4 -4 -4 -4 -4 -4
-1 -2 -1 -0 -1 -2 -3 -3 -3 -3 -3 -4 -3 -2 -4 -5 -5 -4 -4 -4 -4 -5 -5 -5 -5 -5 -5 -5 -5 -5 -6 -6 -6 -5 -5 -5 -5 -5 -5 -5 -5 -5 -4 -4
-1 -3 -1 -0 -1 -3 -3 -3 -4 -4 -4 -4 -4 -3 -4 -5 -6 -6 -5 -5 -5 -5 -5 -6 -6 -6 -6 -6 -6 -6 -6 -6 -6 -6 -6 -6 -6 -6 -6 -6 -6 -5 -5 -5
-2 -3 -3 -3 -3 -3 -4 -4 -5 -5 -4 -4 -4 -5 -4 -5 -6 -6 -6 -6 -6 -6 -6 -6 -6 -6 -6 -6 -7 -7 -7 -7 -7 -6 -6 -6 -6 -6 -6 -6 -6 -6 -6 -6
-3 -3 -4 -4 -3 -4 -4 -4 -5 -5 -6 -6 -5 -5 -6 -6 -6 -7 -7 -7 -7 -7 -7 -7 -7 -7 -7 -7 -7 -7 -7 -7 -7 -7 -7 -7 -7 -7 -7 -7 -7 -7 -7 -7
-4 -4 -4 -4 -4 -4 -4 -5 -6 -6 -7 -7 -6 -6 -7 -8 -8 -7 -7 -7 -7 -7 -7 -7 -8 -8 -8 -8 -8 -8 -8 -8 -8 -8 -8 -8 -7 -7 -8 -8 -8 -7 -7 -7
-5 -5 -5 -5 -5 -3 -3 -6 -6 -6 -7 -8 -8 -8 -8 -8 -7 -7 -7 -7 -7 -7 -8 -8 -8 -8 -8 -8 -8 -9 -9 -9 -8 -8 -8 -8 -8 -8 -8 -8 -8 -8 -8 -8
-5 -5 -5 -5 -5 -5 -4 -6 -8 -7 -7 -9 -9 -9 -8 -8 -8 -8 -7 -7 -7 -8 -8 -8 -8 -8 -9 -9 -9 -9 -9 -9 -9 -9 -9 -9 -9 -9 -9 -9 -9 -9 -9 -9
-6 -6 -6 -6 -5 -4 -4 -7 -8 -7 -6 -8 -9 -9 -9 -9 -9 -8 -7 -8 -8 -8 -9 -9 -9 -9 -9 -9 -9 -10 -9 -10 -9 -9 -9 -9 -9 -9 -9 -9 -9 -9 -9 -9
-6 -6 -6 -6 -6 -5 -7 -8 -8 -5 -5 -7 -8 -8 -9 -10 -9 -8 -8 -8 -9 -9 -9 -9 -9 -9 -10 -10 -10 -10 -10 -10 -10 -10 -10 -10 -10 -10 -10 -10 -10 -10 -10 -10
-7 -7 -7 -7 -6 -5 -9 -9 -8 -7 -7 -7 -7 -8 -8 -8 -9 -9 -9 -9 -9 -9 -9 -10 -10 -10 -10 -10 -10 -10 -10 -10 -11 -11 -11 -10 -10 -10 -10 -10 -10 -10 -10 -10
-8 -7 -7 -7 -6 -8 -8 -8 -7 -7 -7 -7 -8 -8 -8 -9 -9 -9 -9 -9 -10 -10 -10 -10 -10 -10 -11 -11 -11 -11 -11 -11 -11 -11 -11 -11 -11 -11 -11 -11 -11 -11 -11 -11
-9 -9 -9 -9 -9 -9 -8 -7 -7 -7 -7 -8 -8 -8 -9 -9 -9 -10 -10 -10 -10 -10 -10 -10 -11 -11 -11 -11 -11 -11 -11 -11 -11 -11 -11 -11 -11 -11 -11 -11 -11 -11 -11 -11
-9 -10 -10 -9 -10 -9 -9 -8 -8 -8 -8 -8 -8 -9 -9 -9 -9 -10 -10 -10 -10 -10 -11 -11 -11 -11 -11 -11 -11 -11 -12 -12 -12 -12 -12 -12 -12 -12 -12 -12 -12 -12 -12 -12
-10 -10 -9 -8 -8 -9 -8 -7 -7 -8 -8 -8 -9 -9 -9 -10 -10 -10 -10 -10 -11 -11 -11 -11 -11 -11 -11 -11 -11 -12 -12 -12 -12 -12 -12 -12 -12 -12 -12 -12 -12 -12 -12 -12
Wind_Speed
3 5 2 5 5 3 4 4 4 4 1 1 5 4 4 2 2 3 2 2 2 1 2 3 4 4 5 5 5 5 5 4 3 2 1 1 1 1 2 3 3 3 3 2
4 1 4 2 1 2 2 2 2 2 2 1 3 4 3 2 2 3 4 3 2 1 3 3 3 4 4 4 5 4 4 4 3 2 1 1 1 1 1 3 4 4 3 3
4 2 1 2 1 1 2 4 3 3 4 2 2 4 2 0 1 1 1 2 2 3 2 1 2 3 4 4 4 4 4 4 4 4 2 2 2 2 2 2 3 5 4 3
1 2 1 2 1 2 5 3 3 2 1 3 0 4 5 2 1 1 1 1 2 2 2 2 2 3 4 4 4 4 4 5 5 4 3 2 2 2 2 2 2 4 5 5
0 1 2 1 2 2 3 1 2 2 2 2 1 3 6 1 3 5 3 2 1 1 2 2 2 2 3 4 4 5 5 5 5 4 3 2 2 2 3 2 2 2 3 4
1 1 1 2 1 2 2 3 3 4 3 3 4 5 6 3 5 4 3 2 1 1 1 2 2 3 4 4 5 5 5 5 5 5 4 3 3 3 3 3 2 2 2 3
3 2 2 1 2 2 3 4 3 4 2 6 2 4 7 3 3 3 5 3 2 1 1 1 2 3 4 5 5 5 6 6 6 6 4 4 3 3 3 3 2 3 3 3
1 4 1 1 2 2 2 4 5 5 5 5 2 6 5 2 2 1 3 3 2 1 1 0 1 2 3 4 5 5 5 6 6 6 5 4 4 3 3 3 3 3 3 4
3 3 1 2 2 3 3 2 3 5 1 3 5 5 4 0 2 2 2 2 1 1 0 1 1 2 2 3 4 4 5 5 6 6 6 5 5 4 4 4 3 3 4 4
3 2 2 2 2 3 1 5 4 4 3 4 6 5 4 4 4 2 2 2 2 2 1 2 2 2 2 2 3 4 4 4 5 5 5 5 5 5 5 4 4 4 5 5
2 3 2 2 2 3 2 2 3 4 4 5 4 6 4 6 5 5 4 3 3 3 2 2 3 3 3 3 3 3 4 4 5 5 5 5 5 6 5 4 5 5 5 6
2 3 2 4 1 0 2 3 5 4 4 4 3 6 2 2 3 4 4 3 3 3 3 2 2 3 3 3 3 3 4 4 5 5 5 5 5 5 4 5 5 6 6 6
3 4 1 3 2 1 1 2 3 3 3 4 5 6 1 1 1 2 3 3 3 3 3 2 2 3 3 3 3 4 4 4 5 5 5 5 6 5 5 5 6 6 6 6
4 3 5 7 5 3 3 3 4 5 4 5 8 8 6 4 3 3 3 3 3 4 3 3 3 3 3 3 3 4 4 4 5 5 5 5 5 5 5 5 6 6 6 6
4 3 4 5 3 3 5 6 6 8 8 9 8 8 10 6 5 5 3 3 4 4 4 3 3 4 4 3 3 4 4 5 5 5 5 4 5 5 5 5 6 6 6 7
2 3 1 3 2 3 5 7 7 8 7 8 7 10 7 4 2 3 3 4 4 5 4 4 4 4 4 4 4 4 5 5 5 5 4 4 5 5 5 6 6 6 6 7
3 4 2 3 3 3 7 7 8 6 5 7 9 8 2 2 3 4 4 4 5 5 5 5 4 4 4 4 4 4 5 5 5 5 5 4 4 5 6 6 6 6 6 7
5 4 2 1 3 5 6 1 5 5 5 6 5 4 4 4 4 3 3 4 5 4 4 4 4 4 3 3 3 4 4 4 4 5 5 5 4 5 5 5 6 6 6 6
3 5 3 2 3 7 6 2 3 4 5 4 6 6 4 2 2 3 2 2 4 4 4 4 3 3 3 3 3 3 4 4 4 5 5 5 5 5 6 6 6 6 5 6
2 3 4 3 3 6 5 1 1 3 4 3 5 5 3 1 1 4 2 1 3 3 3 3 3 2 3 3 3 3 4 4 5 6 6 5 5 5 5 6 6 5 5 6
2 2 4 5 6 7 4 1 3 3 5 2 4 4 3 4 5 4 3 3 3 3 3 2 2 2 3 3 2 3 4 5 6 6 6 6 5 5 5 5 5 5 6 6
6 5 5 4 5 7 2 4 6 6 1 1 2 3 3 4 4 4 4 4 4 3 3 2 2 3 3 3 3 4 6 6 5 5 5 6 6 5 5 4 5 5 5 5
6 6 5 7 7 2 4 5 3 2 2 3 2 3 3 3 4 4 4 4 4 4 3 2 3 4 4 3 3 5 6 5 4 5 5 5 6 5 5 5 5 5 4 4
3 2 3 4 6 4 4 3 2 2 3 3 3 3 3 4 5 5 4 4 4 4 3 3 3 4 5 4 4 5 5 4 4 5 5 5 5 5 5 4 4 4 4 4
4 4 3 5 4 3 4 5 5 3 2 2 2 3 4 4 4 4 4 4 4 4 3 3 3 4 6 5 5 6 5 4 4 5 5 5 5 5 5 5 4 5 4 5
4 6 6 7 6 5 5 4 4 4 4 4 3 2 2 3 4 4 4 4 4 4 3 3 4 5 6 5 6 6 5 4 4 5 5 4 4 4 4 5 6 8 8 10
Wind_Direction
48 76 166 209 205 194 179 191 227 243 265 210 232 248 265 233 164 173 178 156 146 142 45 62 58 53 47 37 35 31 25 13 22 15 7 6 325 335 2 9 15 20 29 45
58 234 238 222 207 196 182 187 233 300 342 265 252 260 265 216 191 180 177 172 165 98 49 49 50 44 40 28 22 24 16 5 6 2 331 309 301 285 340 2 5 5 15 19
154 229 254 143 74 172 212 194 211 251 332 345 342 301 275 285 94 89 136 155 149 150 141 78 53 38 29 22 12 6 6 4 359 2 9 11 17 6 4 353 348 353 358 359
118 308 75 109 161 188 229 212 198 209 14 283 105 278 265 251 261 263 254 144 152 132 119 99 66 35 22 7 6 7 11 10 5 10 20 26 6 324 294 293 308 343 356 353
253 12 81 174 231 189 214 211 203 196 167 292 270 221 279 247 240 247 235 198 174 142 122 100 76 44 21 13 12 6 9 11 7 7 6 359 342 319 312 316 327 332 346 348
68 1 96 223 242 148 121 63 46 54 89 259 227 196 272 233 230 237 214 198 182 138 95 70 45 38 23 18 14 9 9 7 3 3 0 352 336 328 327 324 324 318 316 330
343 339 4 40 75 50 79 92 29 348 334 251 206 205 250 268 268 222 190 182 176 153 103 55 32 19 13 10 6 4 7 3 360 360 358 348 335 322 305 293 298 303 305 298
227 286 286 9 158 177 179 151 163 210 237 277 283 232 254 291 339 62 127 146 140 142 137 44 2 7 1 358 359 360 0 357 357 356 350 349 344 336 316 306 299 291 287 282
186 248 353 31 33 135 145 175 158 143 147 273 263 278 295 190 18 49 97 121 176 221 281 318 334 347 344 341 341 345 350 352 354 352 348 348 350 343 327 319 316 307 307 309
162 242 297 321 46 24 117 145 114 140 185 258 281 263 242 229 235 236 215 218 246 270 292 308 314 316 324 326 330 342 345 347 347 349 346 346 341 338 332 330 328 320 316 315
124 172 303 -0 194 197 130 152 148 150 171 186 260 266 232 210 203 205 220 228 238 252 262 277 292 303 315 334 338 340 344 345 346 345 343 342 336 335 336 335 330 325 320 316
138 138 244 253 279 294 181 186 156 173 224 196 215 264 290 207 207 198 217 235 249 254 263 272 284 303 318 327 333 333 336 336 333 334 336 333 330 329 333 329 325 325 319 316
134 127 359 332 330 348 267 221 181 145 142 184 204 256 335 34 335 230 218 246 266 272 276 284 294 299 300 307 317 320 322 321 323 328 328 326 325 328 327 324 325 327 324 320
112 151 189 215 226 187 221 226 182 159 193 223 226 242 269 273 270 275 267 265 271 266 266 274 285 293 294 297 302 307 313 315 320 323 320 317 318 321 321 322 324 324 323 319
114 197 224 249 244 208 224 225 199 202 210 218 239 237 256 252 245 248 250 266 280 280 278 278 284 290 294 295 297 307 313 316 319 318 318 315 317 319 322 324 324 323 324 323
124 182 230 278 256 246 267 250 217 220 225 234 254 266 267 265 261 262 261 268 276 283 283 287 292 299 299 296 297 307 310 316 319 315 314 319 324 325 326 325 325 325 324 321
158 154 172 267 307 334 276 242 205 209 211 199 226 243 264 289 273 254 253 257 264 276 282 286 290 291 295 296 299 299 305 316 320 317 317 321 322 322 322 323 324 323 321 320
157 154 172 266 20 248 248 189 182 200 235 218 233 254 247 247 275 270 249 240 263 272 278 286 291 293 294 300 304 304 311 316 317 317 315 319 320 317 316 318 317 316 314 314
162 161 167 182 248 273 287 221 168 188 265 227 224 248 264 278 339 306 264 231 252 263 267 273 273 276 291 299 301 304 310 312 313 311 309 309 310 310 313 314 312 310 312 312
83 132 160 173 212 243 250 212 158 112 281 235 198 227 238 114 290 274 285 281 279 280 280 283 295 300 302 302 306 304 306 309 304 303 302 302 302 303 303 303 304 306 308 308
141 169 198 206 228 258 252 202 131 173 251 219 188 208 201 207 228 256 297 298 284 283 288 291 292 293 290 296 301 295 299 296 296 303 304 306 305 300 294 298 301 303 307 312
176 178 199 184 212 251 185 141 185 217 236 182 202 209 215 233 257 275 285 288 293 295 294 287 283 289 292 290 285 287 288 291 299 303 304 305 305 303 306 303 304 306 308 310
196 195 195 197 215 247 177 192 220 182 198 225 219 230 217 239 264 276 279 279 281 281 282 275 268 286 293 284 269 277 287 296 301 304 304 305 306 303 304 300 300 305 307 306
244 204 187 241 257 247 226 235 255 218 216 234 228 232 220 240 260 270 276 282 279 278 274 268 268 279 288 286 280 273 288 295 293 296 300 302 304 306 305 302 300 299 297 298
221 179 203 245 265 292 263 232 234 235 242 254 259 243 231 235 259 260 269 276 276 282 279 270 263 269 278 284 283 287 293 291 289 290 292 295 298 298 300 300 294 292 277 284
197 187 196 230 215 205 241 237 220 218 238 240 245 267 258 232 251 266 271 273 274 276 275 275 273 275 281 285 286 287 287 279 279 291 294 292 293 293 296 298 301 303 301 303
Height
1503 1508 1512 1510 1510 1510 1511 1513 1516 1515 1514 1516 1516 1518 1518 1517 1517 1517 1518 1519 1519 1520 1521 1521 1520 1520 1520 1520 1520 1520 1520 1519 1519 1519 1519 1518 1518 1519 1519 1519 1519 1519 1519 1519
1509 1512 1510 1509 1509 1510 1511 1515 1517 1516 1515 1516 1517 1519 1516 1515 1516 1516 1517 1517 1518 1519 1519 1519 1519 1519 1519 1518 1518 1518 1517 1517 1517 1517 1516 1516 1515 1515 1516 1516 1516 1516 1515 1516
1508 1511 1508 1509 1511 1511 1513 1515 1516 1518 1517 1516 1518 1519 1517 1515 1515 1516 1516 1517 1517 1517 1517 1518 1518 1517 1517 1517 1516 1516 1515 1514 1514 1514 1514 1513 1512 1512 1513 1512 1512 1512 1512 1512
1511 1510 1509 1510 1512 1511 1512 1513 1514 1516 1520 1523 1520 1525 1517 1516 1516 1515 1515 1515 1516 1516 1517 1517 1517 1516 1516 1516 1515 1514 1513 1513 1512 1511 1510 1510 1509 1509 1509 1509 1509 1509 1509 1509
1512 1510 1510 1511 1512 1512 1513 1513 1514 1516 1521 1526 1524 1526 1519 1517 1516 1515 1515 1515 1515 1516 1516 1516 1516 1515 1515 1514 1513 1512 1511 1510 1510 1509 1508 1507 1506 1506 1506 1506 1505 1505 1505 1506
1512 1511 1511 1511 1511 1512 1513 1515 1517 1522 1525 1527 1523 1527 1520 1518 1513 1512 1513 1514 1514 1515 1515 1515 1515 1514 1513 1513 1511 1510 1509 1508 1507 1506 1505 1504 1504 1503 1502 1502 1502 1501 1501 1502
1513 1512 1511 1511 1512 1513 1515 1519 1526 1527 1532 1525 1522 1524 1519 1514 1512 1510 1511 1512 1513 1513 1514 1513 1513 1512 1512 1511 1509 1508 1507 1506 1505 1503 1502 1502 1501 1500 1499 1498 1498 1498 1497 1497
1514 1514 1513 1512 1512 1514 1516 1517 1524 1529 1532 1527 1524 1522 1516 1514 1512 1510 1511 1512 1512 1513 1513 1512 1512 1511 1510 1509 1508 1506 1505 1504 1502 1501 1500 1498 1498 1497 1496 1495 1495 1494 1494 1494
1516 1514 1514 1513 1513 1513 1515 1519 1520 1530 1537 1537 1527 1523 1516 1513 1512 1511 1511 1511 1511 1512 1511 1511 1510 1510 1509 1507 1506 1504 1503 1501 1500 1498 1497 1496 1495 1493 1492 1492 1491 1490 1490 1489
1514 1517 1516 1515 1514 1515 1515 1518 1524 1528 1531 1532 1524 1523 1515 1513 1512 1512 1511 1511 1511 1511 1510 1510 1509 1508 1507 1506 1504 1503 1501 1499 1498 1496 1494 1493 1491 1490 1489 1488 1487 1486 1486 1485
1514 1519 1519 1518 1518 1517 1519 1519 1520 1527 1529 1532 1531 1520 1510 1508 1508 1510 1510 1510 1510 1510 1509 1508 1507 1506 1505 1504 1502 1501 1499 1497 1495 1494 1492 1490 1488 1487 1486 1484 1483 1482 1482 1481
1515 1519 1521 1520 1519 1518 1518 1519 1521 1524 1528 1532 1532 1521 1507 1507 1506 1507 1508 1508 1509 1508 1508 1507 1505 1504 1503 1501 1500 1498 1497 1495 1493 1491 1489 1487 1485 1484 1482 1481 1480 1478 1477 1477
1514 1519 1521 1517 1522 1522 1521 1520 1521 1523 1527 1532 1529 1518 1508 1507 1506 1507 1507 1507 1507 1506 1505 1504 1503 1502 1500 1499 1497 1496 1494 1492 1490 1488 1486 1484 1482 1481 1479 1478 1476 1475 1474 1473
1511 1518 1519 1516 1514 1518 1521 1520 1521 1522 1525 1526 1521 1511 1508 1507 1507 1506 1506 1505 1505 1504 1503 1501 1500 1499 1497 1496 1494 1492 1491 1489 1487 1485 1483 1481 1479 1478 1476 1475 1473 1471 1470 1469
1512 1518 1519 1517 1516 1517 1516 1517 1519 1520 1517 1517 1511 1512 1505 1504 1504 1504 1504 1503 1502 1501 1500 1499 1497 1496 1494 1493 1491 1489 1488 1486 1484 1482 1480 1478 1477 1475 1473 1471 1470 1468 1466 1465
1513 1517 1518 1517 1514 1515 1514 1512 1514 1515 1515 1514 1511 1508 1501 1501 1502 1502 1501 1500 1499 1498 1497 1496 1495 1493 1492 1490 1488 1486 1484 1483 1481 1479 1477 1476 1474 1472 1470 1468 1467 1465 1463 1461
1514 1517 1518 1517 1516 1513 1511 1506 1509 1510 1509 1509 1507 1503 1500 1500 1499 1499 1498 1497 1497 1496 1495 1494 1492 1490 1489 1487 1486 1484 1482 1480 1478 1476 1475 1473 1471 1469 1467 1466 1464 1462 1460 1458
1513 1515 1518 1519 1519 1515 1501 1502 1502 1504 1504 1503 1501 1499 1498 1498 1497 1496 1496 1495 1494 1493 1492 1491 1489 1488 1486 1484 1483 1481 1479 1477 1475 1473 1472 1470 1468 1466 1464 1462 1461 1459 1456 1454
1508 1512 1517 1520 1519 1510 1502 1501 1502 1503 1501 1498 1498 1497 1496 1496 1495 1494 1493 1493 1492 1491 1490 1488 1487 1485 1483 1481 1480 1478 1476 1474 1472 1470 1469 1467 1465 1463 1461 1459 1457 1455 1453 1451
1510 1511 1516 1518 1515 1509 1497 1499 1499 1502 1500 1494 1494 1494 1494 1495 1497 1493 1491 1490 1489 1488 1487 1485 1483 1482 1480 1478 1477 1475 1473 1471 1469 1467 1465 1464 1462 1460 1458 1456 1454 1452 1450 1448
1513 1514 1514 1514 1513 1503 1499 1498 1500 1502 1495 1492 1491 1491 1492 1492 1492 1490 1489 1487 1486 1485 1484 1482 1480 1479 1477 1475 1474 1472 1470 1468 1466 1464 1462 1461 1459 1457 1455 1453 1451 1449 1447 1445
1510 1513 1514 1513 1511 1502 1496 1497 1497 1493 1490 1489 1489 1489 1489 1488 1488 1487 1486 1484 1483 1482 1480 1479 1477 1476 1474 1473 1471 1468 1467 1465 1463 1461 1460 1458 1456 1454 1452 1450 1448 1446 1444 1441
1503 1502 1502 1502 1497 1492 1490 1489 1489 1488 1488 1487 1487 1487 1486 1485 1484 1484 1482 1481 1480 1479 1477 1476 1474 1473 1471 1470 1468 1465 1464 1462 1460 1458 1456 1455 1453 1451 1449 1447 1444 1442 1440 1438
1499 1497 1498 1498 1492 1489 1488 1487 1487 1486 1486 1485 1485 1485 1484 1482 1481 1481 1480 1478 1477 1476 1474 1473 1471 1469 1468 1467 1465 1463 1461 1459 1457 1455 1453 1451 1449 1447 1445 1443 1441 1439 1437 1435
1493 1494 1494 1493 1488 1487 1485 1484 1484 1484 1483 1483 1482 1482 1481 1480 1479 1478 1476 1475 1474 1473 1471 1470 1468 1466 1465 1463 1462 1460 1458 1456 1454 1452 1450 1448 1446 1443 1441 1440 1438 1436 1434 1433
1487 1488 1489 1484 1481 1482 1481 1480 1481 1480 1480 1480 1479 1478 1478 1477 1476 1475 1473 1472 1471 1469 1468 1467 1465 1463 1462 1460 1458 1457 1455 1452 1450 1448 1446 1444 1442 1440 1438 1436 1434 1432 1431 1429